Probability
3 3 3 3 3 3 2 2 1 0 0 0 0 0 0 0 0 0 0 0 0 0 0 0 0 1 2 2 1 0 0 0 0 0 0 0 0 0 0 0 0 0 0
2 2 3 3 3 2 1 1 0 0 0 0 0 0 0 0 0 0 0 0 0 0 0 0 0 1 1 1 0 0 0 0 0 0 0 0 0 0 0 0 0 0 0
1 1 1 1 2 1 0 0 0 0 0 0 0 0 0 0 0 0 0 0 0 0 0 0 0 0 0 0 0 0 0 0 0 0 0 0 0 0 0 0 0 0 0
0 0 0 0 0 0 0 0 0 0 0 0 0 0 0 0 0 0 0 0 0 0 0 0 0 0 0 0 0 0 0 0 0 0 0 0 0 0 0 0 0 0 0
0 0 0 0 0 0 0 0 0 0 0 0 0 0 0 0 0 0 0 0 0 0 0 1 0 0 0 0 0 0 0 0 0 0 0 0 0 0 0 0 0 0 0
0 0 0 0 0 0 0 0 0 0 0 0 0 0 0 0 0 0 0 0 0 0 0 0 0 0 0 0 0 0 0 0 0 0 0 0 0 0 0 0 0 0 0
0 0 0 0 0 0 0 0 0 0 0 0 0 0 0 0 0 0 0 0 0 0 0 0 0 0 0 0 0 0 0 0 0 0 0 0 0 0 0 0 0 0 0
0 0 0 0 0 0 0 0 0 0 0 0 0 0 0 0 0 0 0 0 0 0 0 0 0 0 0 0 0 0 0 0 0 0 0 0 0 0 0 0 0 0 0
0 0 0 0 0 0 0 0 0 0 0 0 0 0 0 0 0 0 0 0 0 0 0 0 0 0 0 0 0 0 0 0 0 0 0 0 0 0 0 0 0 0 0
0 0 0 0 0 0 0 0 0 0 0 0 0 0 0 0 0 0 0 0 0 0 0 0 0 0 0 0 0 0 0 0 0 0 0 0 0 0 0 0 0 0 0
0 0 0 0 0 0 0 0 0 0 0 0 0 0 0 0 0 0 0 0 0 0 0 0 0 0 0 0 0 0 0 0 0 0 0 0 0 0 0 0 1 1 1
0 0 0 0 0 0 0 0 0 0 0 0 0 0 0 0 0 0 0 0 0 0 0 0 0 0 0 0 0 0 0 0 0 0 0 0 0 0 0 0 1 2 2
0 0 0 0 0 0 0 0 0 0 0 0 0 0 0 0 0 0 0 0 0 0 0 0 0 0 0 0 0 0 0 0 0 0 0 0 0 0 0 0 1 2 2
0 0 0 0 0 0 0 0 0 0 0 0 0 0 0 0 0 0 0 0 0 0 0 0 0 0 0 0 0 0 0 0 0 0 0 0 0 0 0 0 0 1 1
0 0 0 0 0 0 0 0 0 0 0 0 0 0 0 0 0 0 0 0 0 0 0 0 0 0 0 0 0 0 0 0 0 0 0 0 0 0 0 0 0 0 0
0 0 0 0 0 0 0 0 0 0 0 0 0 0 0 0 0 0 0 0 0 0 0 0 0 0 0 0 0 0 0 0 0 0 0 0 0 0 0 0 0 0 0
0 0 0 0 0 0 0 0 0 0 0 0 0 0 0 0 0 0 0 0 0 0 0 0 0 0 0 0 0 0 0 0 0 0 0 0 0 0 0 0 0 0 0
0 0 0 0 0 0 0 0 0 0 0 0 0 0 0 0 0 0 0 0 0 0 0 0 0 0 0 0 0 0 0 0 0 0 0 0 0 0 0 0 0 0 0
0 0 0 0 0 0 0 0 0 0 0 0 0 0 0 0 0 0 0 0 0 0 0 0 0 0 0 0 0 0 0 0 0 0 0 0 0 0 0 0 0 0 0
0 0 0 0 0 0 0 0 0 0 0 0 0 0 0 0 0 0 0 0 0 0 0 0 0 0 0 0 0 0 0 0 0 0 0 0 0 0 0 0 0 0 0
0 0 0 0 0 0 0 0 0 0 0 0 0 0 0 0 0 0 0 0 0 0 0 0 0 0 0 0 0 0 0 0 0 0 0 0 0 0 0 0 0 0 0
0 0 0 0 0 0 0 0 0 0 0 0 0 0 0 0 0 0 0 0 0 0 0 0 0 0 0 0 0 0 0 0 0 0 0 0 0 0 0 0 0 0 0
0 0 0 0 0 0 0 0 0 0 0 0 0 0 0 0 0 0 0 0 0 0 0 0 0 0 0 0 0 0 0 0 0 0 0 0 0 0 0 0 0 0 0
0 0 0 0 0 0 0 0 0 0 0 0 0 0 0 0 0 0 0 0 0 0 0 0 0 0 1 1 0 0 0 0 0 0 0 0 0 0 0 0 0 0 0
0 0 0 0 0 0 0 0 0 0 0 0 0 0 0 0 0 0 0 0 0 0 0 0 0 0 1 1 0 0 0 0 0 0 0 0 0 0 0 0 0 0 0
0 0 0 0 0 0 0 0 0 0 0 0 0 0 0 0 0 0 0 0 0 0 0 0 0 0 1 1 0 0 0 0 0 0 0 0 0 0 0 0 0 0 0
Wind_Speed
4 4 4 4 4 4 4 4 4 4 4 4 4 4 4 4 4 4 4 4 4 4 4 3 3 2 2 1 1 1 2 3 5 3 2 2 3 3 3 3 3 4 4
4 4 4 4 4 4 5 4 4 4 4 4 4 4 5 5 4 4 5 5 4 5 4 4 4 3 3 2 2 2 2 3 5 6 3 2 2 2 2 1 2 4 4
4 4 5 4 4 4 4 3 3 4 4 4 4 4 5 5 5 5 5 5 5 4 4 5 5 4 4 3 3 3 2 3 4 6 4 2 1 2 2 1 2 2 3
4 4 4 4 4 3 3 3 3 3 4 4 4 5 5 7 8 7 5 5 4 4 4 5 5 5 4 3 3 3 4 4 4 4 4 3 2 2 1 1 2 1 2
4 4 3 3 3 3 3 3 3 4 5 4 5 5 6 6 8 8 6 5 4 4 4 5 6 7 7 5 4 3 3 3 3 4 4 3 2 2 2 1 2 1 1
3 4 3 3 3 2 2 3 3 4 4 5 5 6 7 7 10 11 8 5 3 4 4 3 4 6 7 7 7 5 4 3 3 3 3 3 3 2 1 2 2 1 1
4 3 3 2 2 2 3 3 3 4 4 4 5 5 6 7 10 12 11 5 3 3 4 4 5 6 5 3 3 4 4 4 3 3 4 3 3 2 1 1 1 1 1
3 3 3 3 3 3 3 3 3 3 3 3 3 4 4 6 9 11 11 4 3 3 4 4 5 5 6 4 2 3 4 4 4 3 3 3 3 1 1 2 2 2 2
4 3 3 2 3 2 3 3 2 1 1 2 2 3 3 4 8 9 9 3 2 4 5 6 5 5 7 7 4 4 4 3 4 5 4 2 2 1 0 1 1 1 1
3 3 3 2 3 3 3 2 1 0 0 1 2 2 3 3 6 8 9 3 3 3 3 4 7 6 7 8 4 3 3 2 2 2 1 2 3 3 3 1 1 1 1
3 3 3 2 2 2 2 1 0 1 0 0 1 1 2 2 3 5 7 4 3 2 2 3 3 5 6 6 4 2 1 1 1 1 2 2 2 2 2 2 1 1 0
3 3 3 2 1 2 2 1 1 1 1 2 2 1 2 2 1 2 3 4 4 3 3 3 2 2 3 4 3 3 3 3 2 2 1 1 1 1 1 2 2 2 3
3 2 2 2 1 2 2 2 2 2 2 2 2 2 2 3 2 1 2 3 4 2 2 3 3 4 4 4 5 5 4 3 2 1 1 1 1 1 2 2 3 3 4
3 3 2 2 2 2 1 1 1 1 1 2 1 0 1 2 2 1 1 1 2 1 2 3 5 7 5 5 4 3 3 2 2 1 1 1 1 1 2 2 2 2 3
3 3 3 3 2 2 1 1 2 2 2 2 3 3 2 3 2 3 2 2 2 3 4 3 3 3 4 4 3 3 3 3 2 2 2 2 2 2 2 2 2 2 3
3 3 3 3 3 3 3 2 1 2 2 2 1 1 2 2 2 1 2 2 3 4 3 4 4 4 3 3 2 3 3 2 2 2 2 2 2 2 3 3 3 3 3
3 3 3 3 3 3 4 4 3 3 4 3 3 3 2 2 2 2 3 5 6 3 3 5 5 4 3 3 2 2 1 1 1 2 2 2 3 3 3 3 3 3 3
4 4 3 3 2 3 3 3 4 4 4 4 6 9 8 7 7 6 4 4 6 5 6 6 5 4 4 3 2 2 1 1 2 2 2 3 3 3 3 3 3 4 4
4 3 3 3 4 4 4 4 3 4 4 4 5 6 9 9 9 9 5 5 7 7 6 5 5 4 3 3 2 2 2 2 2 2 2 3 3 3 4 4 4 5 5
4 4 4 4 5 5 4 4 4 3 3 3 4 5 6 6 6 7 7 8 8 7 6 5 4 3 3 3 3 3 3 3 3 4 4 4 4 4 4 5 5 5 5
6 6 8 7 7 6 5 5 4 4 4 4 3 4 7 6 7 7 6 7 7 6 5 4 3 3 4 4 4 4 4 4 4 4 4 3 3 4 4 4 5 5 5
6 5 6 7 6 5 5 5 5 5 6 5 3 5 8 7 6 6 5 5 5 5 5 4 5 4 4 4 4 4 4 4 4 3 3 3 3 4 4 5 5 5 5
7 7 6 6 5 5 6 7 6 6 6 6 5 5 5 6 6 6 5 4 4 4 4 4 4 5 5 4 3 4 4 4 3 3 3 3 4 4 4 5 7 7 7
8 8 8 6 6 7 7 7 7 7 7 6 6 5 5 5 6 6 5 4 4 4 5 5 5 7 8 5 4 5 4 3 3 3 4 4 5 5 5 6 7 8 8
9 9 8 8 7 7 7 7 7 7 7 6 6 5 5 5 5 5 5 5 6 6 7 6 5 6 8 9 8 6 5 5 4 4 4 5 6 7 7 8 8 8 9
10 10 9 8 8 7 7 7 7 7 7 6 6 5 6 6 6 6 5 5 5 5 6 6 7 8 9 8 9 8 7 7 7 7 5 5 7 7 8 8 10 10 10
Wind_Direction
79 72 73 70 66 61 56 48 35 26 19 20 22 20 20 17 10 10 24 22 23 16 12 14 16 20 14 10 49 92 92 104 116 112 100 103 89 94 92 96 113 110 105
98 94 84 75 68 62 56 45 34 25 17 17 19 17 20 19 14 17 25 28 27 23 22 25 22 30 30 25 38 76 91 106 122 127 121 116 111 116 111 123 128 128 125
101 103 92 80 69 61 51 38 31 31 19 16 17 20 19 18 20 23 33 32 33 32 35 36 32 35 34 37 48 58 75 97 115 128 133 136 136 141 128 123 114 116 143
89 90 88 83 79 68 55 40 32 29 32 22 20 25 30 29 20 15 24 34 35 37 47 49 42 39 40 43 63 69 83 93 109 122 130 134 127 137 127 139 123 177 154
102 104 96 93 85 74 61 51 40 30 38 31 30 33 36 40 21 10 6 36 37 38 45 62 65 66 59 52 65 73 90 103 115 123 128 130 135 147 155 185 150 181 203
117 117 112 101 93 88 76 59 52 42 34 34 40 44 39 31 9 10 11 10 31 44 37 53 94 75 72 71 74 78 84 105 120 127 131 136 139 146 161 179 155 163 203
133 128 123 118 104 84 73 67 57 51 47 42 46 55 54 30 12 7 4 2 32 45 40 33 58 64 55 62 85 99 85 84 102 124 121 132 144 149 146 171 185 207 221
138 130 123 114 97 78 72 66 58 53 48 53 50 53 60 38 17 7 356 0 41 58 52 49 61 57 34 18 55 80 79 62 63 89 99 110 118 127 167 206 214 244 240
141 129 124 117 105 92 84 76 63 51 54 78 71 56 56 43 18 8 359 351 58 65 62 48 49 54 29 24 49 71 78 80 78 88 96 117 140 168 30 354 289 267 279
143 138 120 104 100 90 90 93 88 21 360 86 83 67 60 49 20 13 8 12 45 79 91 78 57 46 31 29 33 49 59 47 69 117 135 200 212 229 237 229 279 299 312
143 128 116 111 124 126 120 121 178 275 10 41 117 113 89 65 46 25 19 20 7 20 75 82 57 34 24 14 17 41 56 329 304 266 226 205 201 200 194 194 205 181 289
128 126 124 139 181 130 136 174 222 237 226 226 231 190 153 139 78 45 18 15 3 12 36 60 65 22 0 343 346 340 328 322 278 265 234 205 178 170 180 183 201 214 217
134 136 137 146 134 136 181 201 221 231 242 229 221 196 163 151 154 222 291 334 353 4 10 355 324 305 302 287 271 283 287 269 264 278 306 290 237 186 198 219 227 230 235
155 157 163 185 189 183 228 241 244 312 321 319 321 69 112 119 111 102 271 224 252 259 275 281 276 274 272 277 283 260 243 248 248 253 260 261 250 235 233 227 227 231 236
170 179 199 210 181 171 145 9 11 40 42 9 1 7 27 66 57 41 13 9 11 15 327 289 264 245 235 236 239 230 221 219 224 233 234 239 240 244 248 243 243 254 256
189 204 217 216 201 194 184 169 117 165 159 129 85 30 60 106 155 48 18 355 343 347 326 287 280 272 263 249 239 231 221 217 218 231 242 249 250 246 250 248 245 250 254
210 217 235 231 216 212 198 194 195 206 225 236 240 245 241 234 251 282 305 314 301 301 271 267 267 267 266 261 256 254 246 213 222 247 257 267 270 265 261 258 259 261 263
222 223 238 246 245 239 233 225 209 204 204 211 222 228 233 239 249 260 282 306 277 246 245 253 256 253 250 256 255 251 248 233 231 239 245 255 265 269 271 270 265 264 267
227 236 237 256 258 254 252 252 242 227 220 200 186 203 222 232 246 254 248 249 263 264 250 244 247 248 247 251 254 246 243 243 248 251 254 257 264 269 272 273 274 276 271
222 242 250 262 265 261 257 255 254 243 239 223 204 195 189 203 222 225 219 232 246 255 259 256 255 253 250 247 241 239 239 234 234 238 244 244 248 257 267 270 272 273 267
226 217 219 241 253 257 263 265 265 262 255 248 233 198 184 211 229 232 225 222 233 245 250 257 259 253 251 249 249 250 249 244 238 239 244 240 245 252 259 267 272 273 275
245 238 226 235 246 251 259 265 263 261 261 261 244 203 203 229 251 255 244 232 227 231 241 246 258 263 257 253 256 249 248 251 256 253 255 261 260 260 262 268 273 278 281
244 251 245 245 248 243 250 259 260 262 260 259 259 247 213 228 245 253 253 249 242 239 240 239 246 258 263 256 259 267 268 265 262 261 258 264 271 274 272 270 274 279 280
249 254 252 247 248 248 250 253 257 262 264 261 259 258 248 239 247 254 253 250 246 242 240 241 246 252 258 258 255 260 259 261 274 281 279 278 279 281 283 283 282 284 283
252 257 256 252 251 254 254 256 259 263 266 267 266 263 262 259 255 254 252 249 249 247 247 245 245 250 254 255 255 254 248 245 247 263 275 274 275 276 276 279 280 282 282
247 252 255 255 254 256 259 260 262 263 265 265 265 265 265 266 265 261 256 253 253 251 250 249 249 252 252 252 254 255 238 231 232 237 250 264 270 273 277 278 281 282 282